Location: Unspecified
(43.0000°N, 0.0000°E)
Time: 08:55:46
(UTC+00:00)

PicSat - Pass Details

Date: 23 July 2019
Orbit: 486 x 500 km, 97.5° (Epoch: 25 August)

Event Time Altitude Azimuth Distance (km) Brightness Sun altitude
Exits shadow 22:34:17 17° 254° (WSW) 1,314 ? -23.5°
Maximum altitude 22:34:51 18° 267° (W) 1,290 ? -23.6°
Drops below altitude 10° 22:37:22 10° 310° (NW) 1,695 ? -23.8°
Sets 22:39:59 0° 331° (NNW) 2,580 ? -23.9°
